Find Starlink 31042

NORAD ID: 58739 Int'l Des: 2024-005 Owner: SPXS Country: US Constellation: starlink operational
LEOCIRCULAR

当前视图

正在加载3D地球...

About Starlink 31042

Starlink 31042 (NORAD 58739) is a starlink constellation satellite (v2 mini) launched Jan 7, 2024 by SPXS of US. It operates in LEO, CIRCULAR orbit with a mass of 730.00 kg.

关于 Starlink 31042

正在加载描述...

即将过境

Passes for default location (London). Set your location on the main map for personalized predictions.

高度历史

Loading altitude history...

两行轨道根数

1 58739U 24005M 26171.21453181 .00001078 00000-0 48702-4 0 9996
2 58739 43.0010 0.7273 0000967 273.9914 86.0827 15.27580343136120
Epoch: Jun 20, 2026 • Age: 30 hours

当前状态

高度 482.6 km
速度 7.63 km/s
星下点 16.43°N, 70.89°E
发射日期 Jan 7, 2024
运行时间 2.4 years
类型 internet

技术详情

分类 Payload
质量 730.00 kg
干质量 700.00 kg
总质量 730.00 kg
长度 0.30 m
直径 4.10 m
跨度 29.00 m
形状 Box + pan
制造商 SPXS
平台类型 Starlink V2M
阶段状态 In Orbit
所有者/国家 SPXS/US

Most Searched